Simultaneous Nadir Overpasses (SNOs) Predictions

Prediction of SNOs between METOP-A and TERRA Satellite Orbit:

Table of predicted SNOs for the next 14.0 days since TLE Epoch: 2/20/2021
Index Date (METOP-A) Time (METOP-A) Lat,Lon (METOP-A) SZA (METOP-A ) Date (TERRA) Time (TERRA) Lat,Lon (TERRA) SZA (TERRA ) Distance(km) Time Diff (sec)
1 02/20/2021 17:40:39 -81.35, 142.14 85.67 02/20/2021 17:41:05 -81.34, 141.99 85.69 2.89 26
2 02/20/2021 18:31:19 81.34, -50.16 94.35 02/20/2021 18:30:31 81.34, -50.26 94.32 1.76 48
3 02/23/2021 13:15:01 -81.35,-151.46 86.69 02/23/2021 13:15:19 -81.34,-151.56 86.70 2.07 18
4 02/23/2021 14:05:41 81.33, 16.23 93.33 02/23/2021 14:04:45 81.34, 16.16 93.31 1.32 56
5 02/26/2021 08:49:22 -81.35, -85.07 87.72 02/26/2021 08:49:32 -81.34, -85.14 87.73 1.63 10
6 02/26/2021 09:40:02 81.33, 82.61 92.30 02/26/2021 09:38:58 81.34, 82.55 92.27 1.06 64
7 03/01/2021 03:33:12 81.44, 170.58 90.98 03/01/2021 03:34:23 81.25, 172.11 91.02 33.52 71
8 03/01/2021 04:23:44 -81.34, -18.69 88.77 03/01/2021 04:23:46 -81.33, -18.75 88.78 1.59 2
9 03/01/2021 05:14:24 81.33, 148.98 91.25 03/01/2021 05:13:12 81.33, 148.92 91.21 0.99 72
10 03/03/2021 23:07:25 81.34,-119.55 90.20 03/03/2021 23:08:32 81.35,-119.66 90.22 2.06 67



Historial Predications of SNOs between METOP-A and TERRA
